Location: *
(40.0124°S, 175.6727°E)
Time: 00:32:02
(UTC+00:00)

Cosmos 2346 Rocket - Pass Details

Date: 08 August 2025
Orbit: 935 x 979 km, 82.9° (Epoch: 16 December)

Event Time Altitude Azimuth Distance (km) Brightness Sun altitude
Exits shadow 16:37:43 85° 167° (SSE) 998 4.4 -30.2°
Drops below altitude 10° 16:43:51 10° 173° (S) 2,756 7.0 -29.0°
Sets 16:46:23 0° 172° (S) 3,706 7.7 -28.5°
